Wind_Speed
23 23 22 18 17 16 16 16 15 14 11 6 7 9 8 8 9 5 1 5 2 1 5 1 2 0 2 2 4 4 6 5 4 3 3 2 3 1 4 3 5 6 3 4 4 5 5 14 3 6 6 6 8 6
25 25 23 18 18 17 17 17 14 14 11 8 6 7 7 6 7 5 2 3 1 4 6 4 7 5 5 6 6 2 5 2 3 1 2 2 2 3 4 4 2 3 3 2 4 3 4 6 6 6 6 3 5 4
25 26 23 19 19 19 18 17 16 13 12 10 5 6 6 5 5 5 3 4 2 4 5 8 7 4 4 5 5 4 2 2 2 3 1 1 3 2 3 2 2 4 2 2 6 5 6 8 9 11 7 2 6 7
24 24 21 20 18 17 16 15 14 12 12 10 5 5 4 4 3 2 1 4 3 2 3 5 5 4 3 4 5 3 4 3 3 3 2 2 2 1 1 2 6 3 5 5 5 6 5 8 10 9 10 7 10 8
22 20 18 15 15 16 15 14 13 11 12 10 5 4 4 4 2 2 2 2 1 4 2 4 6 4 4 4 7 5 2 2 3 4 4 1 1 3 2 2 4 4 1 3 2 6 2 6 6 7 7 8 8 11
17 16 15 14 15 14 12 11 11 10 11 9 5 4 4 3 2 3 4 3 1 1 3 4 4 7 6 4 5 6 4 1 1 2 2 2 2 3 2 2 3 2 2 3 4 5 6 7 6 5 6 5 4 7
12 12 12 11 10 8 6 8 8 9 9 8 5 4 4 3 4 4 4 3 2 0 3 3 4 5 6 5 2 2 2 2 3 1 1 1 3 3 2 3 6 6 6 6 7 8 6 4 4 5 5 6 4 7
10 10 10 10 8 6 6 6 8 7 9 6 5 3 3 4 3 4 2 1 2 3 3 3 3 5 8 5 4 1 1 2 2 1 2 2 2 2 3 6 7 9 8 7 6 2 6 6 4 3 3 4 5 5
7 8 8 8 5 6 6 6 8 6 6 5 3 3 3 3 5 3 3 1 2 4 3 3 4 3 5 3 0 3 2 2 2 2 2 2 1 4 6 7 11 12 10 10 9 7 6 4 4 3 3 3 3 4
5 6 6 5 2 2 5 6 6 6 5 3 4 5 4 5 5 6 2 4 5 5 3 5 1 4 5 4 4 2 1 1 2 2 2 4 4 7 5 6 9 10 8 10 10 8 6 6 5 5 4 3 2 2
6 4 3 1 2 1 5 6 6 4 3 4 6 1 4 9 4 4 4 5 5 5 5 6 6 5 3 5 3 1 1 0 2 4 3 2 3 5 10 10 9 10 10 9 5 4 5 5 5 6 6 7 6 5
6 5 3 1 1 0 2 5 6 5 3 3 3 4 5 4 3 4 5 4 5 5 5 8 7 2 4 2 3 3 1 2 2 2 3 2 3 5 10 13 13 13 12 10 9 8 7 6 5 4 4 4 3 3
5 5 4 3 2 2 1 2 6 6 3 2 4 5 3 4 2 6 8 5 4 6 6 7 8 5 4 4 1 3 4 2 1 3 3 5 6 7 10 11 14 16 15 13 12 11 9 8 7 8 7 6 4 4
5 5 3 4 4 2 2 1 3 6 2 3 5 1 5 5 5 5 6 4 3 4 9 10 7 4 3 5 2 3 2 3 3 3 4 4 8 9 10 11 12 15 15 15 14 12 11 10 8 8 8 8 7 5
5 6 2 3 4 2 2 3 2 4 3 3 4 4 7 6 2 3 3 3 4 6 9 8 5 4 5 4 3 2 4 4 4 4 3 3 7 8 11 13 14 14 14 14 16 12 11 9 8 7 7 7 5 5
5 4 3 3 5 2 2 2 1 2 3 3 4 5 4 5 6 6 5 5 6 8 8 6 4 4 5 3 5 7 3 4 3 3 3 4 5 9 11 12 13 16 17 16 15 13 11 9 8 9 8 6 5 4
4 2 6 4 3 3 5 2 2 4 4 4 5 5 6 5 4 4 3 5 8 9 8 5 6 6 3 4 4 4 4 3 3 2 2 4 7 9 10 12 16 17 17 17 16 14 11 9 9 9 8 5 3 2
5 4 6 4 3 4 3 5 4 4 6 6 5 5 5 5 4 3 4 4 6 9 8 6 3 7 5 6 6 5 5 5 5 6 7 5 7 10 13 14 18 19 19 18 17 15 14 13 11 10 7 7 8 9
8 7 6 2 1 2 3 5 5 4 6 4 6 6 5 5 4 4 3 5 6 2 3 4 5 7 8 8 9 8 6 5 6 6 5 6 8 10 13 14 15 19 20 19 19 16 14 13 10 9 10 13 11 9
10 12 8 6 3 3 3 3 4 4 4 0 4 5 5 5 2 4 5 7 7 4 5 5 9 8 7 7 6 7 7 6 5 8 9 7 9 13 16 17 18 20 15 18 18 16 15 12 11 13 14 11 10 9
7 8 7 5 4 5 3 3 4 3 3 4 2 3 5 5 6 7 7 6 6 4 7 8 10 10 10 8 7 8 8 8 8 9 10 8 9 13 14 18 21 21 17 17 15 14 16 12 14 14 14 12 9 7
4 11 5 6 4 2 4 5 4 2 3 3 3 4 4 5 6 7 4 7 5 8 8 8 7 6 5 7 7 7 10 10 10 11 8 8 7 8 11 17 18 14 18 18 18 17 14 13 14 14 14 11 8 8
8 7 4 4 5 4 4 3 5 4 4 3 3 3 4 4 3 3 5 7 8 7 5 6 4 6 6 8 8 10 10 10 8 9 9 9 9 11 15 18 23 23 15 16 17 18 16 15 15 14 14 12 11 10
5 5 3 4 5 3 3 4 4 3 4 5 4 4 4 3 4 4 6 8 6 2 5 5 5 4 5 7 7 5 6 7 9 9 7 7 5 6 12 15 17 19 25 24 20 15 17 18 18 16 15 15 13 10
1 2 3 3 4 3 4 3 4 4 4 5 4 4 3 3 3 4 3 0 3 4 3 3 3 4 5 5 5 6 5 7 7 5 2 6 6 10 10 11 20 26 26 25 20 23 20 19 19 18 18 16 13 11
2 5 5 6 4 4 4 3 3 5 4 4 5 2 2 3 3 2 3 3 2 1 1 2 4 4 5 6 6 6 7 5 6 6 2 6 10 16 12 10 8 16 23 24 21 20 21 21 20 18 17 16 12 10
2 3 4 3 2 3 4 5 3 4 3 2 1 3 3 3 2 2 1 1 1 1 3 5 7 7 7 9 8 8 5 5 4 4 4 8 17 22 22 22 20 22 23 22 19 19 21 21 20 19 17 17 16 16
4 2 7 5 6 4 4 4 3 3 2 1 3 2 0 1 3 2 3 2 3 4 5 6 6 5 6 5 3 2 2 4 7 10 12 9 7 8 9 16 24 16 14 17 18 18 19 19 20 18 18 16 15 13
4 3 4 7 7 5 6 4 4 1 1 1 2 3 3 2 1 1 1 1 3 5 5 4 2 1 4 6 5 5 8 10 11 7 6 6 6 10 10 11 12 10 12 13 16 15 16 18 20 19 18 16 14 13
6 6 5 6 9 6 5 5 2 3 3 4 4 4 2 2 2 3 1 2 4 4 4 3 0 2 4 8 9 8 6 4 2 2 3 4 5 8 13 11 9 7 9 11 12 17 16 15 13 15 14 15 13 12
1 5 7 8 8 7 8 6 6 7 7 6 4 5 5 1 3 3 2 2 3 3 3 1 4 4 5 6 6 6 6 4 3 1 1 2 1 7 13 12 8 7 11 14 14 16 18 19 19 18 19 19 17 16
6 6 5 6 5 6 7 6 6 8 4 3 5 3 3 3 2 2 3 3 4 1 3 1 2 4 3 3 4 2 1 3 1 3 5 4 3 8 11 10 9 9 10 11 12 13 15 18 19 20 20 19 19 17
7 6 5 4 3 4 6 5 4 4 5 2 0 1 2 1 2 2 3 2 3 4 4 3 1 2 3 3 4 5 6 4 7 9 7 6 6 11 12 10 9 8 9 9 10 10 11 12 13 13 15 15 16 16
Wind_Direction
314 317 319 315 316 315 310 308 309 311 309 304 323 332 341 346 356 6 334 358 307 348 106 92 97 136 191 285 308 64 241 191 220 245 266 170 248 154 268 302 296 272 260 236 263 263 214 5 247 329 357 326 1 47
307 312 312 307 310 306 300 298 298 306 299 291 302 322 327 336 346 1 256 2 10 301 78 100 86 57 33 0 313 183 338 312 4 222 216 174 188 202 236 234 168 224 347 318 332 46 47 36 28 1 327 299 15 58
304 308 309 306 306 299 291 284 286 290 288 291 287 315 314 321 334 351 306 329 231 181 149 178 140 81 60 18 351 297 140 38 188 336 336 139 231 232 223 225 243 153 189 211 179 120 71 38 44 34 25 58 80 83
300 304 305 302 304 299 292 278 271 274 271 278 267 292 294 300 315 324 302 316 265 295 258 129 146 126 45 56 35 13 97 122 122 246 255 253 227 242 195 20 265 41 174 173 106 134 120 68 36 34 50 79 90 81
299 302 302 300 297 297 288 273 257 260 259 265 254 267 280 290 296 216 244 359 302 296 292 127 148 140 139 95 70 66 112 220 214 206 224 178 93 227 202 261 224 187 91 208 123 121 83 73 40 41 63 75 86 113
301 305 299 296 296 297 280 255 243 249 251 251 242 245 264 267 210 207 209 203 22 193 251 205 89 165 152 134 99 73 54 39 289 286 97 112 65 270 256 244 98 136 115 25 114 123 99 106 71 59 76 68 95 110
300 297 295 301 298 299 266 233 238 235 247 244 227 237 259 221 197 255 355 82 244 233 227 218 187 162 183 201 173 155 81 67 336 115 210 197 163 263 278 238 141 147 128 130 125 137 139 177 103 82 95 107 113 124
294 297 304 302 290 273 231 233 231 232 226 231 228 245 231 198 198 220 201 261 183 242 231 246 133 184 190 213 193 226 229 191 63 76 175 228 161 289 245 225 170 160 153 156 139 143 101 132 126 95 96 133 139 131
295 299 306 310 292 241 233 229 230 218 210 217 221 205 155 194 208 140 188 214 233 279 233 232 210 165 173 188 144 175 269 231 120 207 176 237 93 231 226 191 185 177 183 164 163 154 155 164 168 182 206 194 194 138
315 303 308 309 353 227 210 218 220 207 213 226 183 210 180 148 147 134 159 198 194 197 219 250 136 151 215 176 175 221 234 344 260 97 162 214 240 236 205 205 186 183 185 172 177 176 180 151 146 141 141 141 157 167
337 315 314 349 65 166 201 219 216 214 209 193 209 175 87 145 182 206 192 207 181 212 199 223 205 158 184 219 153 264 60 44 250 119 269 236 262 181 178 180 180 179 182 189 193 163 177 149 153 142 138 132 127 114
323 309 313 12 71 39 197 209 210 199 226 224 108 119 150 204 209 211 194 181 223 214 162 189 177 165 132 220 213 180 230 201 256 122 248 255 218 154 174 179 180 183 190 192 192 192 189 189 196 195 185 192 173 139
316 316 290 226 214 277 283 225 207 208 166 203 220 185 192 157 203 210 191 197 209 178 162 161 153 147 145 214 138 201 216 217 119 227 238 234 120 172 185 187 187 190 194 196 195 207 216 217 222 232 227 229 227 232
317 326 289 205 210 249 263 216 175 182 225 237 180 262 218 189 228 207 216 206 127 179 162 170 144 165 133 183 164 220 101 204 241 227 237 189 189 192 189 195 199 199 202 204 209 212 216 223 215 211 220 216 218 226
301 321 260 195 195 251 213 191 159 190 260 239 221 227 215 241 236 232 247 212 181 170 157 148 148 192 155 160 209 162 196 235 227 235 220 182 188 194 193 198 203 204 205 210 212 215 205 194 192 190 177 173 170 181
287 317 206 202 184 171 205 180 202 215 241 247 239 246 218 241 227 198 196 207 153 174 177 181 148 194 190 203 186 205 218 223 203 203 240 166 196 201 202 201 206 207 203 206 200 196 192 190 189 178 175 182 192 218
242 214 174 183 177 221 191 156 219 221 246 230 233 234 266 305 283 175 184 202 165 181 187 182 185 187 137 208 214 201 221 234 205 217 251 235 224 208 202 199 198 195 191 189 185 182 180 175 172 179 193 198 211 172
194 185 170 174 173 177 189 200 220 244 239 237 243 244 211 254 261 204 193 178 190 206 217 212 159 199 207 203 212 203 227 266 276 284 290 261 222 214 202 195 188 187 183 180 178 175 169 170 181 194 185 171 160 146
206 193 188 188 165 196 208 203 228 256 235 252 249 254 247 260 242 258 210 181 226 274 222 204 233 231 240 247 264 277 280 263 273 309 290 250 226 205 196 195 192 182 173 173 173 174 176 184 188 175 170 168 163 166
227 215 211 224 215 220 224 204 215 257 260 190 234 246 235 248 238 191 221 209 201 210 214 224 242 257 253 265 270 268 291 316 297 286 275 222 216 193 187 177 176 165 182 172 178 169 165 170 178 169 171 181 168 167
196 199 199 199 199 229 270 239 228 251 283 244 250 244 242 210 231 223 213 170 202 219 229 236 247 257 270 308 311 297 279 272 270 277 281 291 179 204 184 180 168 147 165 188 168 174 175 173 167 172 170 183 193 188
181 169 143 172 220 231 264 224 284 330 248 270 249 237 253 232 228 214 181 203 234 232 227 258 266 282 281 267 286 276 282 274 265 264 254 252 229 199 183 164 155 159 171 183 165 176 177 166 177 180 181 186 193 198
153 158 159 181 211 190 262 213 232 208 234 217 197 226 220 218 215 141 226 225 242 237 242 248 253 253 275 288 281 275 270 270 272 265 266 249 239 193 179 172 162 148 144 167 168 175 172 192 179 182 184 191 196 206
154 176 180 187 198 226 205 222 220 239 221 216 227 238 223 207 159 224 239 235 226 167 206 210 227 253 257 247 260 286 290 282 277 271 259 239 197 169 163 163 174 173 157 153 156 165 202 187 179 187 189 196 204 209
137 197 165 221 210 224 234 226 214 217 242 213 235 238 186 189 212 222 237 310 212 214 193 193 249 264 274 294 302 297 279 279 293 293 241 218 182 161 144 155 155 158 159 156 176 202 196 186 186 192 200 204 207 207
213 187 197 198 184 214 216 246 223 222 254 236 217 180 190 215 234 171 168 99 147 133 25 301 294 280 275 279 293 299 318 314 284 266 223 200 163 154 147 149 155 175 179 179 191 198 195 193 193 196 199 199 208 231
248 196 199 227 292 284 240 243 245 258 227 270 330 202 210 221 114 18 88 77 23 63 332 309 298 292 296 303 311 309 300 296 292 337 147 161 174 172 165 161 172 182 183 187 202 202 196 197 198 197 201 201 200 205
243 246 225 193 212 216 276 279 232 231 241 75 263 242 246 29 80 51 54 64 352 332 317 309 304 301 304 306 280 147 86 105 113 116 115 121 152 170 183 179 175 189 179 194 205 205 208 199 200 196 198 202 201 200
227 211 230 237 230 222 216 231 260 155 253 321 322 331 18 37 35 88 105 325 310 306 318 346 53 56 82 94 117 121 130 134 134 135 142 154 157 182 174 174 175 189 198 199 203 210 210 208 198 194 195 200 204 201
228 215 229 221 221 225 223 205 264 278 314 326 317 282 250 140 179 192 209 313 328 338 344 326 290 180 129 127 123 125 134 145 151 132 133 162 194 170 170 176 182 196 192 193 181 191 204 202 196 197 206 204 206 208
253 206 228 241 240 238 242 258 254 259 273 279 281 280 301 104 157 189 246 308 322 312 310 239 183 185 180 151 135 140 129 133 131 133 279 39 258 186 181 188 194 190 189 196 190 185 189 197 201 207 210 218 221 221
200 216 218 221 240 226 225 245 244 245 231 227 248 223 177 193 153 133 188 210 262 338 67 355 203 164 182 187 186 159 85 84 152 247 245 254 220 177 170 174 170 169 175 183 192 199 200 209 215 219 220 219 225 217
200 198 220 266 242 207 186 205 213 228 218 231 152 53 90 85 62 102 167 216 351 26 45 55 90 156 176 207 215 218 233 261 310 307 255 222 200 189 186 183 183 185 190 197 197 191 196 211 215 212 216 216 209 210
Height
831 828 825 822 820 818 817 816 814 812 809 807 807 806 804 802 800 798 797 795 794 784 790 791 792 792 792 789 790 789 790 789 784 791 792 794 799 801 800 792 792 792 795 793 788 793 801 792 783 793 797 788 786 791
826 823 820 817 816 814 813 812 811 810 808 805 805 804 803 802 800 798 796 795 795 792 790 795 796 797 796 794 791 790 790 790 787 790 793 795 805 800 799 808 797 806 796 804 802 805 800 797 799 797 794 792 791 792
820 817 814 812 810 808 807 807 807 807 806 804 803 803 802 801 800 799 799 796 795 789 793 792 792 798 797 796 795 791 789 792 792 793 787 791 801 797 803 798 797 798 803 798 802 801 801 800 797 797 796 794 793 797
813 811 808 806 804 802 801 801 802 803 803 802 801 801 800 799 799 798 799 797 796 790 787 790 796 797 798 797 796 794 794 796 794 792 789 788 793 798 794 795 794 791 798 796 801 800 800 801 802 802 801 801 800 804
807 804 802 800 798 797 796 796 797 799 800 800 800 799 799 798 798 798 798 797 796 795 786 787 794 797 798 798 797 796 795 793 790 790 789 791 795 798 794 794 790 790 790 794 802 799 801 806 807 805 803 804 805 807
801 799 797 795 793 791 791 792 794 796 798 798 798 797 797 797 797 799 795 797 795 794 788 790 792 795 797 798 798 798 796 795 792 789 793 798 805 802 799 800 793 795 798 799 800 802 803 807 808 807 807 807 808 808
796 795 793 791 789 788 788 790 791 793 795 796 796 795 796 796 796 795 791 796 795 794 788 788 787 793 795 796 795 794 797 796 793 795 798 797 800 804 799 803 793 797 800 802 803 804 807 806 808 809 809 811 812 811
792 791 790 788 786 785 786 788 790 791 793 794 795 794 794 795 796 795 795 795 795 792 789 786 784 790 793 788 789 795 791 793 798 798 801 800 804 804 811 791 793 797 800 802 803 803 802 807 809 809 809 809 809 811
789 788 787 785 783 783 784 787 789 789 791 792 793 793 794 795 792 791 794 794 795 794 784 782 780 785 789 787 790 793 793 792 799 796 799 804 810 818 793 789 792 795 796 798 802 804 805 806 808 809 808 809 808 811
787 786 785 783 781 782 783 786 787 788 790 791 793 792 786 789 791 793 795 793 790 787 785 780 772 781 784 786 787 790 791 792 795 794 800 799 796 785 787 788 789 792 795 796 799 803 804 805 807 808 809 811 811 812
786 785 784 782 780 781 783 785 786 788 789 790 787 783 790 790 792 788 785 785 780 782 773 771 771 778 784 784 783 789 790 793 799 791 794 788 784 776 782 788 790 793 795 796 797 800 802 803 806 807 810 812 813 814
784 783 782 781 780 782 783 784 785 787 788 785 785 787 789 788 784 784 780 778 778 773 769 772 773 771 783 784 783 791 790 794 794 790 792 793 771 774 779 784 788 792 795 797 800 802 803 804 806 807 808 810 811 814
782 781 780 780 780 781 782 783 783 785 786 787 784 781 779 782 792 782 778 770 766 762 766 769 775 774 784 783 784 788 793 789 789 791 791 775 768 772 777 780 784 789 792 795 798 800 801 803 805 807 808 810 812 813
781 779 778 778 780 781 782 782 783 785 786 783 778 796 776 773 766 758 756 751 753 753 758 759 769 771 775 781 780 788 785 787 789 787 779 760 764 768 773 777 781 785 788 791 794 796 799 801 803 806 807 808 811 813
779 778 777 777 779 780 781 782 783 784 784 777 773 779 765 754 753 754 753 756 758 754 756 761 766 766 773 780 778 782 791 788 778 772 758 754 759 763 768 772 775 779 783 786 789 792 795 798 801 804 807 809 811 814
777 777 776 777 777 778 780 781 782 784 781 776 770 762 753 755 750 750 753 752 755 755 754 754 763 768 771 768 778 778 776 774 759 756 752 754 760 762 764 767 770 773 777 781 785 790 794 797 800 804 808 809 811 812
776 777 776 777 777 778 779 781 782 780 773 768 759 754 752 751 748 745 750 747 753 755 754 753 763 766 760 767 767 759 762 751 747 746 747 752 755 758 761 763 766 770 774 778 783 788 792 796 800 804 806 810 811 813
774 774 776 776 777 778 780 780 779 773 767 758 756 747 750 750 747 748 751 754 753 750 746 750 746 759 758 759 754 747 747 745 744 746 746 748 753 755 757 759 763 768 772 777 783 788 791 795 799 801 804 807 810 811
772 772 774 776 777 777 776 776 775 765 756 751 750 748 749 747 747 749 749 753 753 750 750 749 752 749 747 741 741 738 738 740 740 742 743 748 751 753 754 758 763 766 770 776 781 785 789 793 793 797 801 805 805 807
769 770 772 775 776 775 771 767 769 761 752 745 747 746 745 742 741 745 750 749 751 751 750 746 741 735 733 732 731 733 735 738 741 741 737 738 746 749 751 754 757 763 773 774 778 783 786 790 793 795 799 802 804 806
767 769 770 773 774 774 770 763 758 753 747 746 740 742 739 738 740 739 741 746 748 743 739 734 732 728 728 729 734 736 737 738 736 734 733 735 740 745 748 749 756 757 768 775 776 782 785 788 792 794 799 801 803 804
764 765 768 771 771 770 766 758 754 752 750 740 742 739 736 735 733 732 732 739 735 730 728 727 724 726 728 732 732 734 734 735 734 733 734 735 733 736 740 748 753 756 760 769 775 780 783 788 791 794 796 799 802 804
763 764 766 767 766 765 761 757 753 744 744 737 737 737 733 731 728 734 731 725 722 720 724 727 729 731 731 731 731 731 731 731 728 727 728 728 727 733 738 741 744 750 760 769 772 778 782 786 788 791 794 797 798 800
762 762 762 761 761 757 751 748 744 741 737 736 734 732 727 726 732 729 724 717 715 722 725 727 727 725 725 726 726 723 726 726 725 723 725 727 730 736 739 743 748 750 754 762 769 775 779 781 784 788 790 793 793 794
762 760 759 760 751 750 743 737 735 735 734 729 731 728 726 727 730 727 722 716 717 719 720 723 724 724 723 721 721 721 723 724 721 720 722 725 726 732 740 742 745 750 753 760 767 771 773 776 779 783 785 787 788 789
759 750 754 740 739 740 741 732 732 730 728 728 726 723 725 726 724 724 719 719 720 720 721 722 722 721 721 721 720 719 720 722 723 721 722 723 725 730 736 742 748 750 755 757 761 764 767 770 773 776 779 782 786 787
754 742 740 741 738 738 734 731 732 732 729 727 724 723 723 724 722 723 719 720 720 723 724 724 723 722 721 721 723 724 724 724 724 723 724 725 727 729 732 736 742 747 750 754 756 757 759 763 767 770 774 777 780 784
742 741 740 737 736 737 736 730 727 725 722 720 721 721 721 719 722 720 721 723 723 723 723 723 723 722 722 721 724 724 724 724 725 726 727 729 731 733 735 737 741 744 745 749 751 753 754 757 761 765 769 772 774 778
741 738 738 737 734 736 732 730 723 720 719 717 722 719 716 716 719 720 722 723 723 722 720 720 720 721 721 722 723 724 725 726 728 728 728 728 731 733 733 734 737 740 743 745 747 750 752 754 756 760 764 768 770 773
739 737 734 731 730 728 722 719 723 719 718 718 718 716 714 718 722 723 723 722 721 720 720 720 720 719 718 718 721 723 724 724 723 722 722 724 725 727 731 733 736 737 739 741 743 748 751 754 756 759 761 763 766 769
732 731 732 729 726 722 720 719 718 718 717 716 717 718 714 716 720 721 722 722 721 721 719 718 718 719 718 718 718 719 721 724 725 726 726 725 725 726 728 731 733 735 737 739 740 743 747 750 752 755 757 759 761 765
733 732 727 724 720 716 718 718 716 714 712 717 714 714 715 716 717 718 721 721 719 716 719 718 717 718 720 720 721 722 723 722 724 725 726 726 726 727 729 731 732 734 735 737 738 740 742 745 746 748 750 753 756 759
723 721 721 721 717 713 713 714 712 711 710 711 713 714 714 714 715 716 720 720 720 718 718 719 720 720 721 722 722 722 723 723 723 723 723 725 726 727 728 730 732 733 735 736 737 738 741 742 743 745 747 748 751 754